O3b星座 FM12星 (O3B FM12)

导读

O3B FM12卫星由O3B发射于2014年12月18日,是中圆地球轨道卫星星座的重要成员,旨在为全球提供高速低延迟互联网连接,尤其服务偏远地区和海洋船只等通信需求。卫星搭载先进通信载荷,助力填补数字鸿沟,提升全球网络覆盖能力,是O3B星座建设中的关键卫星之一。

Basic Information
目录编号:
40350
目录名称:
O3B FM12
国际标识:
2014-083C
轨道中心:
EARTH
卫星名称:
O3b星座 FM12星
卫星全名:
O3b星座 FM12星 (O3B FM12)
卫星状态:
在轨 (已飞行4260 天)
发射日期:
2014-12-18 UTC
国别 :
(O3B)
星等 :
--
Orbit Information
数据来源 国际轨道数据 AOE轨道数据
星历时间 2026-08-16T11:59:17+0800
21小时前
查看轨道信息
2026-08-12T17:00:00+0800
4天前
查看轨道信息
半长轴 14444.018km 14444.053km
偏心率 0.0002449 0.0002422
轨道倾角 0.054° 0.054°
近地点辐角 153.185° 148.584°
升交点赤经 349.093° 348.973°
平近点角 217.737° 234.601°
近地点 8062.343km 8062.417km
远地点 8069.419km 8069.415km
周期 287.933分钟 287.934分钟
每日圈数 5.00116 5.001142
Detailed Information
平衡模式:
三轴稳定
覆盖范围:
全球
运营商:
欧洲卫星公司
运营商所在国:
卢森堡
制造商(研发单位):
阿莱尼亚宇航公司
制造商所在国:
意大利
使用方式:
暂无
Satellite Introduction
O3b卫星星座分为O3b FM卫星星座和O3b mPOWER卫星星座,前者是由阿莱尼亚宇航公司制造的第一代O3b卫星星座,后者是由波音公司制造的第二代O3b卫星星座。O3b卫星初始星座运行于赤道圆轨道,轨道高度8062公里,能够覆盖全球南北纬45°之间所有地方,在南、北纬45°~62°范围内也能提供一定的服务。该卫星仍在工作。
2D Orbit Map
3D Orbit Map
Orbit Altitude Analysis Chart
Orbit Inclination Analysis Chart
Orbit Comprehensive Analysis Chart
View Comprehensive Chart